Theta_e
322 322 330 331 330 327 331 332 328 330 329 331 328 326 326 331 331 329 328 325 318 325 334 335 335 334 335 335 333 325 312 310 310 312 315 318 315 314 321 323 323 328 328 325 318 316 317 320 323
325 328 333 335 329 330 327 328 331 328 331 334 333 333 333 332 331 330 324 327 321 331 332 334 329 329 329 326 319 312 311 310 313 319 327 328 317 315 317 319 323 326 328 328 320 317 318 321 321
331 328 333 330 328 329 330 329 328 328 334 331 336 334 333 331 331 325 325 326 322 331 330 331 329 327 324 318 313 316 315 314 321 328 329 326 316 315 316 316 319 321 326 324 317 316 319 320 321
331 330 330 330 333 330 327 329 329 328 330 332 335 332 332 331 328 324 325 325 321 330 331 329 328 325 318 312 311 318 327 329 327 330 328 318 315 316 316 315 315 323 320 315 317 317 318 320 323
331 329 328 331 330 328 325 328 329 328 329 334 334 331 331 329 326 325 325 323 323 334 330 329 327 323 315 311 310 311 314 326 328 329 323 316 316 315 314 313 313 314 315 317 320 321 321 322 324
330 326 327 329 329 326 324 327 329 329 329 334 332 332 332 329 329 327 324 321 327 334 329 328 325 319 313 311 310 310 312 317 319 318 316 316 315 313 313 314 315 316 317 319 321 321 322 322 323
323 325 326 326 327 326 324 326 327 328 329 333 332 330 330 331 330 327 325 320 326 332 330 326 320 318 314 311 311 312 314 316 316 316 316 314 313 314 315 316 317 319 320 320 321 322 322 322 323
319 318 323 324 326 324 322 324 325 328 327 332 332 329 327 331 329 326 325 321 326 332 328 319 321 319 315 311 312 314 317 317 317 316 314 313 315 315 314 315 318 318 320 320 319 321 323 323 323
321 315 320 323 324 324 321 324 327 327 330 332 333 332 330 332 329 326 323 317 325 331 325 319 322 318 316 313 313 316 318 317 317 314 312 315 314 315 319 319 320 321 321 320 320 319 322 322 323
320 314 317 319 321 321 318 318 321 329 332 332 334 333 332 331 329 327 326 317 318 326 326 321 325 319 315 314 315 318 318 317 315 312 314 314 317 320 321 321 322 320 321 320 321 318 319 320 322
326 318 315 317 319 318 318 318 319 326 329 332 333 333 330 330 328 328 327 323 321 321 319 324 327 321 315 315 319 320 318 317 314 313 316 318 321 322 323 321 321 319 319 319 318 316 317 318 319
326 321 316 317 320 320 320 320 318 319 329 327 331 333 331 329 329 329 327 328 331 332 328 329 329 324 315 316 319 319 318 316 313 315 317 319 323 323 324 323 323 321 320 318 318 318 315 317 317
325 324 322 318 322 322 322 322 320 320 320 320 330 333 332 330 329 329 328 329 330 331 330 329 330 324 315 316 318 318 317 315 313 317 318 320 322 323 323 323 322 321 321 320 320 318 318 316 317
321 324 324 322 321 323 323 322 321 320 322 323 329 332 331 330 330 330 329 327 331 330 329 329 329 323 316 317 318 317 317 314 313 317 318 320 323 323 324 322 319 319 314 315 318 318 318 315 316
315 324 325 324 324 323 322 322 319 321 320 324 332 333 331 329 329 328 326 328 331 331 330 325 327 323 316 319 319 317 316 314 313 317 319 321 324 325 323 320 320 316 311 312 314 315 314 313 314
315 323 326 325 324 324 322 326 318 321 319 323 328 333 331 329 328 328 327 330 331 330 329 327 324 320 319 320 321 318 316 313 314 317 319 323 324 323 320 320 319 312 311 312 313 312 311 312 312
314 321 324 322 324 324 323 325 322 323 321 323 329 332 332 331 329 327 325 326 329 330 329 328 323 320 323 326 323 318 315 313 314 316 319 321 323 322 320 321 320 312 312 313 313 309 309 308 310
309 319 320 322 321 324 324 324 321 320 319 323 325 331 332 331 331 329 327 325 326 327 328 328 324 324 325 327 326 321 316 314 315 316 318 320 321 321 322 323 322 313 312 313 313 310 309 309 308
309 316 318 318 321 324 324 324 323 321 321 322 327 329 331 331 331 331 328 326 326 327 327 329 326 326 324 326 327 322 318 317 316 317 318 320 320 321 322 323 324 315 312 313 313 311 309 308 309
308 311 315 313 319 324 324 325 323 322 322 321 323 328 329 331 330 331 330 327 326 326 327 327 326 325 325 324 325 322 317 315 315 318 320 321 321 321 322 324 324 319 313 313 313 311 309 309 308
307 310 310 313 313 323 324 326 325 323 323 322 322 322 324 328 330 330 330 329 327 327 326 326 325 323 325 323 324 323 321 320 319 319 320 320 321 320 322 324 324 322 315 313 312 311 309 307 307
307 308 309 313 314 325 323 325 325 324 322 322 322 321 324 326 329 330 330 330 329 328 327 326 326 324 324 324 323 323 322 319 316 314 316 319 320 320 323 325 325 324 316 313 312 310 308 306 306
307 308 310 309 313 322 325 326 322 323 323 322 321 322 321 323 325 329 331 330 328 328 327 327 326 326 325 324 322 322 323 321 317 315 318 319 319 319 322 324 325 325 321 315 312 310 308 305 306
310 313 314 316 316 323 323 324 322 322 322 322 322 321 321 322 323 326 327 329 327 328 328 327 326 327 326 325 324 323 323 323 321 318 318 318 319 318 321 324 325 326 323 318 314 310 307 305 305
309 312 313 315 323 326 324 326 323 321 319 321 321 322 321 322 323 325 327 329 328 327 327 328 327 327 327 326 325 323 323 323 322 321 319 318 319 318 318 321 324 326 325 321 314 311 306 304 304
310 311 315 326 324 325 321 326 323 320 320 321 321 322 321 322 323 324 326 329 329 327 325 326 327 328 328 327 326 325 325 324 323 323 322 321 320 319 317 320 323 325 325 322 315 311 307 303 303
314 312 312 317 313 322 323 323 321 320 318 313 318 321 321 322 324 324 327 329 329 329 327 325 325 327 328 327 327 327 326 325 324 323 323 323 323 322 319 319 322 325 326 322 316 311 309 303 302
314 313 315 317 318 321 321 323 322 309 306 306 305 312 320 321 322 324 326 328 329 330 330 328 326 326 327 328 327 328 327 326 326 326 324 324 324 325 322 321 322 325 327 322 316 311 308 303 302
317 316 319 320 320 322 323 318 304 304 304 304 304 307 311 319 321 323 325 327 328 329 330 330 328 327 326 327 328 329 328 328 328 328 327 325 326 326 325 324 323 325 326 324 317 314 308 303 302
312 317 319 318 319 316 315 308 303 303 303 303 305 307 309 312 317 321 323 324 326 328 329 329 329 327 324 325 328 329 329 329 329 330 328 327 327 328 327 324 326 326 325 322 320 311 309 304 302
Wind_Speed
3 4 4 3 3 4 3 5 2 3 2 3 10 6 8 6 4 4 18 24 25 25 23 22 22 22 22 20 15 10 8 9 14 16 18 16 14 13 14 13 12 13 13 12 12 12 13 14 11
6 5 4 2 3 2 5 4 4 3 9 16 13 9 3 2 5 13 31 24 26 26 25 24 21 20 19 16 13 11 11 14 17 17 18 13 12 11 11 11 11 12 12 11 12 11 12 11 12
9 8 3 3 3 5 5 4 4 4 22 4 5 6 2 7 9 30 23 29 28 28 25 23 20 18 16 14 12 13 14 17 17 16 15 10 10 9 9 9 10 11 11 7 11 11 11 11 13
8 4 2 3 6 5 6 4 3 7 4 4 8 7 5 3 16 23 29 28 30 28 25 25 21 17 15 13 14 16 17 15 15 16 12 8 8 8 7 7 9 10 9 11 11 10 11 12 10
9 4 2 2 4 4 5 5 6 6 6 5 4 6 6 15 12 22 27 28 30 29 26 24 21 17 14 15 16 17 19 19 17 15 11 8 8 7 7 8 9 10 11 11 11 11 12 10 10
4 3 2 5 3 5 6 9 4 8 7 9 5 8 7 13 12 24 26 30 29 29 27 24 20 17 16 17 18 18 19 17 16 13 9 8 7 8 8 9 10 10 10 10 10 10 10 8 9
4 3 5 5 5 3 6 5 6 8 10 8 12 6 6 18 14 25 25 28 30 28 26 23 20 18 17 18 19 18 18 16 13 11 9 8 9 9 9 9 9 10 10 8 10 7 6 7 8
4 3 5 6 5 6 5 4 5 11 9 7 17 8 8 27 26 25 25 28 30 28 26 23 21 20 20 20 19 18 17 15 13 11 9 10 10 10 9 9 10 10 9 9 7 4 5 6 5
5 1 5 8 7 3 3 3 1 4 13 14 17 6 8 33 32 29 29 31 32 30 26 25 23 21 20 20 20 18 16 14 12 11 11 12 11 11 10 10 10 10 8 7 4 4 3 3 3
6 4 8 5 5 5 2 3 6 4 7 7 16 12 11 35 37 36 37 38 37 34 30 27 25 23 22 22 22 20 17 15 12 12 14 13 12 12 9 9 10 9 6 4 3 2 1 1 4
7 7 3 7 7 3 2 3 9 2 2 13 27 22 27 37 39 37 38 39 39 35 32 30 26 24 23 23 22 21 18 16 14 15 15 14 14 11 8 6 5 4 6 4 2 0 2 3 3
6 13 11 7 6 4 1 6 10 4 5 5 17 29 35 40 42 40 40 40 39 35 33 30 28 26 25 24 22 21 19 17 16 17 17 15 13 10 6 4 4 4 5 5 5 5 1 1 4
16 10 23 20 4 4 3 3 6 15 14 16 12 30 38 41 42 40 39 37 37 36 35 34 31 28 28 26 23 22 20 17 17 19 18 16 11 9 7 6 5 4 6 8 9 7 5 3 8
14 26 15 25 18 6 3 4 4 8 2 9 17 34 40 43 43 42 42 40 38 36 37 35 33 30 29 27 25 22 20 18 19 20 18 15 13 9 9 6 6 5 4 6 8 7 6 3 8
14 12 16 16 20 7 8 10 9 28 19 8 24 34 39 42 44 45 45 44 40 39 36 32 35 32 31 29 25 23 21 20 21 21 19 17 14 12 10 8 7 5 5 5 6 6 7 7 8
8 10 18 24 14 12 12 25 9 20 14 19 23 31 35 41 44 43 45 43 41 40 37 32 34 33 32 30 27 24 22 22 22 23 21 19 16 13 8 8 7 6 6 5 5 5 7 8 7
6 10 26 11 28 6 17 8 10 25 16 18 25 32 37 36 39 42 43 44 42 41 37 33 35 34 32 30 27 25 23 24 24 25 23 21 19 15 10 10 9 8 7 7 6 3 5 6 9
20 13 12 24 12 24 17 21 7 5 15 22 25 30 36 36 43 44 42 43 42 41 38 34 36 34 33 30 27 26 25 25 26 26 25 23 20 17 14 12 11 10 10 10 8 6 7 5 8
14 10 15 12 15 15 26 19 17 12 8 14 20 23 34 40 41 42 42 42 43 41 40 39 38 37 35 35 33 31 31 29 29 29 26 24 22 19 17 15 14 13 12 11 10 9 9 9 10
17 23 19 14 21 17 16 22 26 17 10 14 22 25 31 39 33 39 45 44 45 45 42 41 40 40 38 38 36 33 32 31 30 30 29 27 25 22 19 17 16 15 15 16 16 14 13 12 12
19 20 27 15 22 12 5 14 17 21 26 23 22 28 31 36 39 40 44 48 47 48 46 44 43 42 40 40 38 36 33 32 32 34 33 30 28 25 22 19 18 17 17 18 17 16 15 14 16
18 18 23 19 11 17 15 10 18 20 21 22 29 29 31 34 37 42 46 49 52 52 48 46 43 44 43 43 42 42 40 39 38 37 34 32 29 27 24 22 20 19 19 20 19 18 16 16 18
18 17 20 24 21 14 14 9 5 17 20 26 23 33 32 38 37 42 47 47 51 53 51 49 46 44 45 45 45 45 42 40 38 37 35 33 31 30 27 25 22 21 21 20 20 21 19 19 18
4 9 11 11 15 10 8 12 6 11 19 22 26 30 36 40 42 42 42 46 49 53 52 49 50 48 46 47 46 47 45 43 41 39 38 35 34 32 30 28 26 24 22 21 21 22 21 20 19
14 7 4 8 9 4 16 10 10 1 10 19 18 30 40 45 43 44 42 46 49 52 55 53 52 51 49 49 48 48 47 46 43 41 39 36 36 35 33 31 30 27 25 23 22 23 23 22 21
18 18 9 9 5 4 8 9 5 11 19 18 12 26 35 43 48 47 46 47 49 50 52 56 55 53 52 50 50 49 48 48 46 43 40 38 36 33 32 32 30 28 27 24 25 24 23 24 22
11 15 20 6 2 4 4 2 7 2 3 8 13 21 27 39 42 47 44 46 48 48 51 53 56 54 54 52 50 50 49 50 48 44 41 40 37 34 32 32 30 30 29 27 26 24 25 24 22
11 8 7 8 3 2 3 1 3 10 10 8 8 11 27 30 40 46 45 46 47 48 47 48 51 54 53 53 51 51 51 50 48 45 43 41 38 36 33 31 32 32 31 28 27 24 27 24 22
5 8 10 1 1 3 4 2 0 7 7 8 9 15 14 21 36 43 47 47 47 47 48 48 50 52 51 53 53 51 51 50 47 43 42 42 38 35 33 32 33 35 34 32 29 27 28 25 24
4 3 6 2 3 2 2 0 4 5 6 6 10 12 10 3 16 30 34 39 43 43 45 47 47 49 49 49 50 51 50 46 44 43 42 42 38 34 31 27 33 36 34 30 31 30 29 26 25
Wind_Direction
230 247 215 208 57 65 254 259 253 338 59 292 130 162 165 100 158 199 150 156 158 157 153 151 149 147 148 153 153 151 148 135 122 123 119 113 101 101 102 103 95 94 87 79 89 98 101 96 89
200 200 205 125 106 123 258 256 237 220 138 105 100 102 90 123 135 145 153 158 164 161 160 155 153 153 156 159 160 156 145 133 129 120 114 119 107 99 103 98 100 93 87 81 86 100 106 102 86
202 193 193 124 149 191 213 212 214 170 155 118 125 85 91 148 158 155 158 157 169 167 163 167 165 163 163 164 165 150 138 130 124 119 117 134 107 101 95 91 102 101 97 109 96 103 113 102 85
201 163 104 124 216 249 206 214 202 119 180 202 156 81 102 222 161 160 160 162 173 169 168 170 171 168 167 166 162 152 143 136 128 130 150 133 114 107 102 100 100 106 109 103 103 108 111 103 99
198 158 140 209 238 259 246 258 179 146 137 162 216 156 113 140 155 163 164 167 173 168 171 173 172 170 168 163 160 160 154 145 145 157 158 136 119 116 113 102 100 104 106 108 107 103 106 110 100
224 150 130 210 235 255 267 227 211 152 167 167 133 120 144 176 182 169 168 169 176 173 171 174 173 171 169 164 162 159 159 158 158 160 150 134 130 122 113 111 111 108 105 104 102 99 110 117 103
215 140 200 183 228 250 243 230 196 174 171 202 164 115 159 178 180 172 172 176 178 178 176 177 175 173 167 164 162 158 158 157 158 153 144 137 127 121 117 112 108 100 91 90 91 110 120 117 99
255 155 192 206 196 233 247 240 257 216 208 190 183 172 180 181 175 177 178 179 181 181 180 181 179 175 169 165 164 161 159 160 158 153 146 140 131 125 119 117 108 99 91 90 104 117 104 106 122
207 208 203 200 174 230 341 272 171 248 170 174 196 210 219 177 175 175 174 180 184 184 185 185 185 178 175 171 167 166 164 164 161 158 152 144 137 127 122 117 112 103 88 87 89 68 99 142 163
198 188 220 205 194 191 280 332 327 172 161 182 192 203 196 176 176 178 180 182 187 189 189 190 189 184 181 178 174 171 172 171 168 162 156 146 138 132 125 125 121 113 118 118 103 92 338 123 105
202 225 215 242 204 173 201 315 330 98 231 205 198 184 179 178 181 185 188 188 188 188 190 191 192 191 188 184 177 175 178 178 175 170 163 156 146 140 130 117 117 127 146 185 226 20 97 110 148
242 220 210 251 186 172 158 327 315 252 207 311 238 201 181 182 189 192 193 192 190 191 193 194 196 196 193 190 184 182 185 185 182 173 170 168 163 160 159 175 188 202 205 223 247 270 324 255 190
234 249 215 228 244 243 255 245 272 278 264 284 225 192 192 193 196 197 197 195 196 194 196 198 199 200 196 193 190 191 191 191 187 181 178 177 175 170 182 203 231 246 239 239 251 258 280 282 156
314 227 239 224 234 236 209 244 166 259 314 242 206 194 195 196 197 196 200 199 199 198 198 198 200 200 198 196 196 196 197 193 193 189 184 184 181 188 201 217 239 261 251 224 232 246 252 217 159
308 247 218 218 216 217 185 265 195 252 257 233 203 199 199 201 199 206 206 204 200 203 204 204 200 201 201 200 199 200 201 199 197 195 192 191 191 200 210 216 241 260 248 221 217 227 221 183 165
318 255 219 216 183 210 168 240 191 237 222 223 216 206 203 204 208 209 210 208 204 207 206 211 202 202 202 201 201 202 204 204 201 200 198 197 201 213 229 220 239 251 238 229 225 251 183 169 164
230 262 222 232 207 192 203 221 201 245 236 226 218 212 210 209 212 214 213 211 208 211 210 211 206 204 202 202 202 205 208 208 204 204 202 205 209 218 229 232 237 240 231 228 234 238 205 193 166
222 239 252 229 215 213 224 235 226 179 221 222 227 219 212 211 217 216 215 214 211 213 214 213 210 206 206 204 203 207 210 209 206 206 206 211 218 224 231 237 240 239 227 228 227 223 209 217 182
269 246 258 283 224 201 224 224 229 222 233 228 232 215 218 220 224 216 218 215 212 214 215 215 214 209 206 204 205 207 210 209 209 210 211 214 219 225 230 235 238 238 233 234 231 224 222 216 204
248 247 259 305 258 197 215 225 231 220 225 221 234 221 226 229 219 218 217 215 215 214 216 217 216 212 210 211 212 214 212 214 214 213 214 217 222 227 229 233 237 237 231 228 230 234 225 222 220
234 237 241 259 297 216 180 237 230 230 230 236 246 251 246 234 224 219 218 217 215 215 217 217 218 216 214 215 215 218 218 220 218 216 219 220 224 226 228 229 233 234 235 234 236 238 241 239 225
242 231 230 249 271 214 192 243 219 221 226 236 236 239 238 236 234 229 220 217 219 219 217 217 217 218 217 218 217 219 219 218 221 220 220 222 225 226 228 228 231 234 236 234 237 239 242 240 235
241 220 208 233 258 258 192 226 236 190 218 234 233 231 231 236 237 231 226 226 226 220 218 217 218 220 219 220 220 221 223 226 229 226 225 226 228 227 228 231 234 238 239 236 237 236 237 240 238
288 221 209 253 253 225 184 203 215 210 206 229 229 220 226 230 236 237 236 231 226 220 219 219 218 221 222 223 223 224 226 226 230 230 229 229 231 231 231 233 235 238 238 239 242 238 237 241 240
216 181 235 251 220 186 168 192 234 183 201 216 216 212 220 227 230 234 232 225 222 219 220 219 220 222 223 225 225 227 229 231 233 234 235 232 233 234 233 236 238 240 240 240 236 240 237 240 242
208 198 198 221 175 127 154 226 232 220 235 244 229 224 218 221 223 230 230 226 223 222 222 221 221 223 224 227 227 229 231 233 235 237 239 240 240 243 244 242 243 243 241 243 237 237 237 237 240
162 199 218 286 275 107 185 249 299 191 325 351 286 235 221 221 218 224 224 225 224 223 223 225 224 223 226 229 229 230 232 235 236 237 240 242 245 246 247 245 244 245 247 240 239 236 241 236 238
189 123 194 238 138 176 61 95 290 348 330 326 324 296 244 232 223 226 227 226 227 227 228 228 228 228 228 231 232 234 235 236 239 241 241 243 244 246 245 243 241 242 247 241 237 235 239 234 237
136 186 220 73 96 138 136 149 284 295 306 306 313 317 280 238 223 227 229 230 229 227 227 228 228 228 230 233 235 236 238 239 240 244 246 245 244 245 245 245 243 242 244 247 233 235 237 234 236
343 211 223 173 202 11 125 167 15 332 331 346 343 10 34 63 231 222 224 232 229 227 229 230 230 230 232 235 236 238 241 243 247 247 248 245 241 242 245 244 244 247 249 238 236 231 237 233 235